This is the latest recevied weather packets stored in our database for station/object KB4KY. If no packets are shown the sender has not sent any weather packets the latest 1 day(s).
| Time | Temp. | Humidity | Pressure | Rain* | Wind** | Luminosity | Snow |
|---|---|---|---|---|---|---|---|
| 1778048086 | 15.56° C | 96% | 1005.2 hPa | 5.59 mm | - | - | - |
| 1778047990 | 15.56° C | 96% | 1005.2 hPa | 6.1 mm | - | - | - |
| 1778047690 | 15.56° C | 96% | 1005 hPa | 5.84 mm | - | - | - |
| 1778047390 | 15.56° C | 96% | 1005.2 hPa | 5.59 mm | - | - | - |
| 1778047090 | 15.56° C | 96% | 1005.1 hPa | 6.1 mm | - | - | - |
| 1778046792 | 15.56° C | 96% | 1005 hPa | 5.84 mm | - | - | - |
| 1778046188 | 15.56° C | 96% | 1005 hPa | 6.86 mm | - | - | - |
| 1778045888 | 15.56° C | 96% | 1004.9 hPa | 6.6 mm | - | - | - |
| 1778045870 | 15.56° C | 96% | 1004.8 hPa | 5.84 mm | - | - | - |
| 1778045595 | 15.56° C | 96% | 1005 hPa | 6.1 mm | - | - | - |
| 1778045288 | 15.56° C | 96% | 1004.8 hPa | 5.84 mm | - | - | - |
| 1778045031 | 15.56° C | 96% | 1004.9 hPa | 5.08 mm | - | - | - |
| 1778044691 | 15.56° C | 96% | 1004.8 hPa | 4.83 mm | - | - | - |
| 1778043795 | 15.56° C | 95% | 1005 hPa | 3.05 mm | - | - | - |
| 1778043486 | 15.56° C | 95% | 1005 hPa | 2.29 mm | - | - | - |
| 1778043188 | 15.56° C | 95% | 1005 hPa | 2.03 mm | - | - | - |
| 1778042888 | 15.56° C | 95% | 1005.1 hPa | 1.02 mm | - | - | - |
| 1778042591 | 15.56° C | 95% | 1005.1 hPa | 0.51 mm | - | - | - |
| 1778042287 | 15.56° C | 95% | 1005.2 hPa | 0.51 mm | - | - | - |
| 1778041805 | 15.56° C | 95% | 1005.1 hPa | 0.51 mm | - | - | - |
| 1778041688 | 15.56° C | 95% | 1005.1 hPa | 0.51 mm | - | - | - |
| 1778041087 | 15° C | 95% | 1005.2 hPa | 0 mm | - | - | - |
| 1778040189 | 15° C | 95% | 1005.3 hPa | 1.02 mm | - | - | - |
| 1778039886 | 15.56° C | 95% | 1005.4 hPa | 2.29 mm | - | - | - |
| 1778039584 | 15° C | 95% | 1005.5 hPa | 2.54 mm | - | - | - |
* Rain latest hour (hover to see other rain measurements)
** Current wind speed in m/s (hover to see current wind gust speed)